Location: Borgo
(42.3939°N, 9.2791°E)
Time: 21:44:31
(UTC+00:00)

Cosmos 1812 Rocket - Pass Details

Date: 24 January 2021
Orbit: 604 x 633 km, 82.5° (Epoch: 03 March)

Event Time Altitude Azimuth Distance (km) Brightness Sun altitude
Rises 18:15:40 0° 348° (NNW) 2,901 7.1 -20.0°
Reaches altitude 10° 18:17:56 10° 346° (NNW) 1,986 6.2 -20.5°
Maximum altitude 18:22:16 63° 266° (W) 684 3.9 -21.2°
Drops below altitude 10° 18:26:33 10° 185° (S) 1,954 6.2 -22.0°
Sets 18:28:45 0° 182° (S) 2,850 7.1 -22.4°
